Regional Weather Roundup
Issued by NWS Albany, NY

Home | Current Version | Previous Version | Text Only | Print | Product List | Glossary On
Versions: 1 2 3 4 5 6 7 8 9 10 11 12 13 14 15 16 17 18 19 20 21 22 23 24 25 26 27 28 29 30 31 32 33 34 35 36 37 38 39 40 41 42 43 44 45 46 47 48 49
000
ASUS41 KALY 271810
RWRALY

NEW YORK STATE HOURLY WEATHER ROUNDUP
NATIONAL WEATHER SERVICE ALBANY NY
100 PM EST FRI FEB 27 2015

NOTE: "FAIR" INDICATES FEW OR NO CLOUDS BELOW 12,000 FEET WITH NO
SIGNIFICANT WEATHER AND/OR NO OBSTRUCTIONS TO VISIBILITY.

NYZ032-033-038>043-046>054-057>066-NYZ062>081-271900-
EAST


CITY           SKY/WX    TMP DP  RH WIND       PRES   REMARKS
ALBANY         MOSUNNY   19  -1  41 W14       30.40F WCI   6
GLENS FALLS    SUNNY     17  -2  43 S7        30.38F WCI   8
POUGHKEEPSIE   SUNNY     23  -1  35 NW6       30.39F WCI  16
NEWBURGH       SUNNY     21   5  49 CALM      30.37F
MONTGOMERY     SUNNY     24   1  36 VRB3      30.35F
WHITE PLAINS   SUNNY     22   1  40 W8        30.35S WCI  12
ISLIP          MOSUNNY   25   5  42 NW12      30.36F WCI  14
NEW YORK CITY  MOSUNNY   27   8  44 NW7       30.39S WCI  19
$$

NYZ005>009-017-018-044>046-055-056-271900-
CENTRAL


CITY           SKY/WX    TMP DP  RH WIND       PRES   REMARKS
FULTON         MOSUNNY   14   2  58 W13       30.46S WCI   0
SYRACUSE       CLOUDY    17   6  63 NW13      30.45S WCI   3
ROME           MIX PCPN  14   3  61 W6        30.44F WCI   5
ELMIRA         SUNNY     17  -1  45 NW8       30.40F WCI   7
BINGHAMTON     MIX PCPN  14  -2  49 NW13      30.31S WCI   0
MONTICELLO     SUNNY     18   1  49 NW9G18    30.30F WCI   6
$$

NYZ026>034-041>043-271900-
NORTH


CITY           SKY/WX    TMP DP  RH WIND       PRES   REMARKS
WATERTOWN      SUNNY     13   4  67 SW10      30.46R WCI   0
FORT DRUM      NOT AVBL
MASSENA        SUNNY     13  -8  39 SW10      30.43S WCI   0
SARANAC LAKE   SUNNY     13  -9  37 MISG      30.22F
PLATTSBURGH    SUNNY     13  -4  46 SE7       30.38F WCI   3
$$

NYZ001>004-010>016-019>021-271900-
WEST


CITY           SKY/WX    TMP DP  RH WIND       PRES   REMARKS
NIAGARA FALLS  MOSUNNY   10   0  63 W14       30.50S WCI  -6
BUFFALO        MOSUNNY    8   0  69 SW13      30.50S WCI  -8
DUNKIRK        MOSUNNY    8  -1  66 SW14      30.54S WCI  -8
JAMESTOWN      SUNNY      7  -6  56 W7        30.41R WCI  -5
WELLSVILLE     MIX PCPN  13  -3  49 N9        30.31F WCI   1
ROCHESTER      MOSUNNY   13   0  56 SW15      30.48S WCI  -3
PENN YAN       SUNNY     14  -2  49 NW9G17    30.42S WCI   2
$$

             KEY
       WCI = WIND CHILL INDEX
       VSB = VISIBILITY
       HX  = HEAT INDEX
$$


USA.gov is the U.S. government's official web portal to all federal, state and local government web resources and services.